Regional Weather Roundup
Issued by NWS

Home | Current Version | Previous Version | Graphics & Text | Print | Product List | Glossary On
Versions: 1 2 3 4 5 6 7 8 9 10 11 12 13 14 15 16 17 18 19 20 21 22 23 24 25 26 27 28 29 30 31 32 33 34 35 36 37 38 39 40 41 42 43 44 45 46 47 48 49 50
000
ASUS43 KFSD 192002
RWRSD

WEATHER ROUNDUP FOR SOUTH DAKOTA
NATIONAL WEATHER SERVICE SIOUX FALLS SD
300 PM CDT FRI SEP 19 2014

NOTE: "FAIR" INDICATES FEW OR NO CLOUDS BELOW 12,000 FEET WITH NO
SIGNIFICANT WEATHER AND/OR OBSTRUCTIONS TO VISIBILITY.


SDZ001>005-009-010-012>017-192100-
NORTHWEST AND NORTH CENTRAL SOUTH DAKOTA

CITY           SKY/WX    TMP DP  RH WIND       PRES   REMARKS
FAITH            N/A     83  49  30 NW20      29.76S
MOBRIDGE       SUNNY     84  58  40 NW15      29.66S
$$

SDZ012>016-024>037-041>051-057-063-072>074-192100-
SOUTHWEST AND SOUTH CENTRAL SOUTH DAKOTA

CITY           SKY/WX    TMP DP  RH WIND       PRES   REMARKS
RAPID CTY ARPT PTSUNNY   83  50  31 N12       29.82F
PIERRE         PTSUNNY   84  57  39 W13       29.69F
CUSTER         MOSUNNY   77  46  33 NW9       29.96F
ELLSWORTH AFB  PTSUNNY   83  50  31 N16       29.82S
PHILIP         MOSUNNY   86  53  32 W6        29.74F
PINE RIDGE     PTSUNNY   83  55  38 SW8       29.85S
WINNER         FAIR      89  54  30 NW13      29.74S
$$

SDZ004>011-016>023-039-040-192100-
NORTHEAST SOUTH DAKOTA

CITY           SKY/WX    TMP DP  RH WIND       PRES   REMARKS
ABERDEEN       PTSUNNY   78  67  68 SW10      29.64F
WATERTOWN      PTSUNNY   77  65  66 W16       29.67S
SISSETON         N/A     74  66  76 W9        29.60F
$$

SDZ017-020-022-023-036>040-048>070-192100-
SOUTHEAST SOUTH DAKOTA

CITY           SKY/WX    TMP DP  RH WIND       PRES   REMARKS
SIOUX FALLS    MOSUNNY   86  64  47 SW13G23   29.69F
HURON          PTSUNNY   83  63  50 W9        29.66S
CHAMBERLAIN    PTSUNNY   86  57  37 NW8       29.71S
MITCHELL       MOSUNNY   85  67  54 SW10      29.68F
YANKTON        SUNNY     90  64  43 SW21      29.69F
$$

ABBREVIATIONS USED IN REMARKS
   TC - TEMPERATURE IN CELSIUS
  WCI - WIND CHILL INDEX
   HX - HEAT INDEX
  VSB - VISIBILITY




USA.gov is the U.S. government's official web portal to all federal, state and local government web resources and services.